SCP
0 0 0 0 0 0 0 0 0 0 0 0 0 0 0 0 0 0 0 0 0 0 0 0 0 0 0 0 0 0 0 0 0 0 0 0 0 0 0 0 0 0 0 0 0 0 0 0 0
0 0 0 0 0 0 0 0 0 0 0 0 0 0 0 0 0 0 0 0 0 0 0 0 0 0 0 0 0 0 0 0 0 0 0 0 0 0 0 0 0 0 0 0 0 0 0 0 0
0 0 0 0 0 0 0 0 0 0 0 0 0 0 0 0 0 0 0 0 0 0 0 0 0 0 0 0 0 0 0 0 0 0 0 0 0 0 0 0 0 0 0 0 0 0 0 0 0
0 0 0 0 0 0 0 0 0 0 0 0 0 0 0 0 0 0 0 0 0 0 0 0 0 0 0 0 0 0 0 0 0 0 0 0 0 0 0 0 0 0 0 0 0 0 0 0 0
0 0 0 0 0 0 0 0 0 0 0 0 0 0 0 0 0 0 0 0 0 0 0 0 0 0 0 0 0 0 0 0 0 0 0 0 0 0 0 0 0 0 0 0 0 0 0 0 0
0 0 0 0 0 0 0 0 0 0 0 0 0 0 0 0 1 1 0 0 0 0 0 0 0 0 0 0 0 0 0 0 0 0 0 0 0 0 0 0 0 0 0 0 0 0 0 0 0
0 0 0 0 0 0 0 0 0 0 0 0 0 0 0 0 1 1 0 0 0 0 0 0 0 0 0 0 0 0 0 0 0 0 0 0 0 0 0 0 -0 -0 0 0 0 0 0 0 0
0 0 0 0 0 0 0 0 0 0 0 0 0 0 0 1 1 1 1 0 0 0 0 0 0 0 0 0 0 0 0 0 0 0 0 0 0 0 0 -0 -0 0 0 0 0 0 0 0 0
0 0 0 0 0 0 0 0 0 0 0 0 0 0 0 1 1 1 1 1 0 0 0 0 0 0 0 0 0 0 0 0 0 0 0 0 -0 -0 -0 0 0 0 0 0 0 0 0 0 0
0 0 0 0 0 0 0 0 0 0 0 0 0 0 1 1 1 1 1 1 1 0 0 0 0 0 0 0 0 0 0 0 0 0 0 -0 -0 -0 -0 0 0 0 0 0 0 0 0 0 0
0 0 0 0 0 0 0 0 0 0 0 0 0 1 1 1 1 1 1 1 1 0 0 0 0 0 0 0 0 0 0 -0 -0 -0 -0 -0 -0 -0 -0 -0 0 0 0 0 0 0 0 0 0
0 0 0 0 0 0 0 0 0 0 0 0 0 1 1 1 1 1 1 1 1 1 0 0 0 0 0 0 0 0 -0 -0 -0 -0 -0 -0 -0 -0 -0 -0 0 0 0 0 0 0 0 0 0
0 0 0 0 0 0 0 0 0 0 0 1 1 1 1 1 1 1 1 1 1 1 1 0 0 0 0 0 0 0 0 0 0 0 0 0 0 0 0 0 0 0 0 0 0 0 0 0 0
0 0 0 0 0 0 0 0 0 0 1 1 1 1 1 1 1 1 1 1 1 1 1 1 0 0 0 0 0 0 0 0 0 0 0 0 0 0 0 0 0 0 0 0 0 0 0 0 0
0 0 0 0 0 0 0 0 0 1 1 1 1 1 1 1 1 1 1 1 1 1 1 1 1 1 0 0 0 0 0 0 0 0 0 0 0 0 0 0 0 0 0 0 0 0 0 0 0
0 0 0 0 0 0 0 0 0 1 1 1 1 1 1 1 1 1 1 1 1 1 1 1 1 1 1 0 0 0 0 0 0 0 0 0 0 0 0 0 0 0 0 0 0 0 0 0 0
0 0 0 0 0 0 0 0 0 1 1 1 1 1 1 1 1 1 1 1 1 1 1 1 1 1 1 0 0 0 0 0 0 0 0 0 0 0 0 0 0 0 0 0 0 0 0 0 0
0 0 0 0 0 0 0 0 0 1 1 1 1 2 2 2 2 2 2 2 1 1 1 1 1 1 1 1 0 0 0 0 0 0 0 0 0 0 0 0 0 0 0 0 0 0 0 0 0
0 0 0 0 0 0 0 0 0 1 1 1 2 2 2 2 2 2 2 2 2 2 1 1 1 1 1 1 0 0 0 0 0 0 0 0 0 0 0 0 0 0 0 0 0 0 0 0 0
0 0 0 0 0 0 0 0 0 1 1 1 2 2 2 2 2 2 2 2 2 2 1 1 1 1 1 1 0 0 0 0 0 0 0 0 0 0 0 0 0 0 0 0 0 0 0 0 0
0 0 0 0 0 0 0 0 0 0 1 1 2 2 2 2 2 2 2 2 2 2 1 1 1 1 1 1 0 0 0 0 0 0 0 0 0 0 0 0 0 0 0 0 0 0 0 0 0
0 0 0 0 0 0 0 0 0 0 1 1 1 2 2 2 2 2 2 2 2 2 1 1 1 1 1 1 1 0 0 0 0 0 0 0 0 0 0 0 0 0 0 0 0 0 0 0 0
0 0 0 0 0 0 0 0 0 0 1 1 1 2 2 2 2 2 2 2 2 2 1 1 1 1 1 1 1 0 0 0 0 0 0 0 0 0 0 0 0 0 0 0 0 0 0 0 0
0 0 0 0 0 0 0 0 0 0 0 1 1 2 2 2 2 2 2 2 2 1 1 1 1 1 1 1 1 0 0 0 0 0 0 0 0 0 0 0 0 0 0 0 0 0 0 0 0
0 0 0 0 0 0 0 0 0 0 0 1 1 1 2 2 2 2 2 1 1 1 1 1 1 1 1 1 1 0 0 0 0 0 0 0 0 0 0 0 0 0 0 0 0 0 0 0 0
0 0 0 0 0 0 0 0 0 0 0 1 1 1 2 2 1 1 1 1 1 1 1 1 1 1 1 1 1 0 0 0 0 0 0 0 0 0 0 0 0 0 0 0 0 0 0 0 0
0 0 0 0 0 0 0 0 0 0 1 1 1 1 1 1 1 1 1 1 1 1 1 1 1 1 1 1 0 0 0 0 0 0 0 0 0 0 0 0 0 0 0 0 0 0 0 0 0
0 0 0 0 0 0 0 0 0 0 1 1 1 1 1 1 1 1 1 1 1 1 1 1 1 1 1 1 0 0 0 0 0 0 0 0 0 0 0 0 0 0 0 0 0 0 0 0 0
0 0 0 0 0 0 0 0 0 0 1 1 1 1 1 1 1 1 1 1 1 1 1 1 1 1 1 0 0 0 0 0 0 0 0 0 0 0 0 0 0 0 0 0 0 0 0 0 0
0 0 0 0 0 0 0 0 0 0 1 1 1 1 1 1 1 1 1 1 1 1 1 1 1 1 1 0 0 0 0 0 0 0 0 0 0 0 0 0 0 0 0 0 0 0 0 0 0
Wind_Speed
3 2 2 1 5 6 6 6 8 9 7 8 11 10 9 7 6 8 5 13 14 11 9 12 14 15 15 14 14 14 14 14 14 14 14 14 14 14 14 13 14 14 14 14 14 14 15 14 15
2 1 1 4 6 5 4 6 10 11 11 12 12 12 10 9 10 12 8 13 15 12 8 11 15 15 15 14 14 14 14 14 14 13 13 13 13 13 13 13 13 13 14 14 14 14 14 14 13
2 1 3 4 4 5 6 7 10 11 9 8 7 7 7 9 12 8 10 15 13 10 8 11 16 15 15 14 13 13 13 13 13 13 13 13 13 13 13 13 13 13 13 13 13 13 13 13 12
1 3 4 4 4 5 8 8 11 12 9 8 9 8 6 8 8 13 18 16 14 10 8 10 16 15 15 14 14 13 13 13 13 12 12 13 13 13 12 12 13 13 12 12 12 12 11 11 11
3 4 5 3 3 4 8 11 10 10 6 9 11 9 6 6 18 20 18 17 15 10 7 10 15 15 14 14 14 13 13 13 13 12 12 12 12 12 12 12 12 12 12 11 11 10 10 10 10
4 5 5 2 2 4 5 9 12 14 13 12 12 9 5 12 20 19 17 15 15 13 9 9 15 15 14 14 14 13 13 13 13 12 12 12 12 12 12 12 12 12 11 10 10 10 9 9 9
4 4 2 2 3 4 6 7 10 12 12 9 10 8 6 12 16 17 16 15 13 12 9 7 8 10 14 14 13 13 13 13 13 12 12 12 12 12 11 11 11 11 10 10 9 8 8 8 7
4 5 2 0 4 4 6 7 9 13 9 11 9 9 9 13 15 16 15 13 12 10 9 7 6 6 6 8 12 13 13 13 13 13 12 12 12 11 11 9 10 10 9 9 8 8 8 7 6
4 5 2 3 4 4 6 9 5 7 9 6 4 7 13 18 20 17 14 11 10 10 8 8 8 6 6 6 10 10 12 12 11 10 12 10 5 5 6 8 10 10 9 8 7 7 6 5 4
5 4 5 6 6 6 8 9 8 7 7 5 8 10 15 19 20 19 17 15 13 12 10 8 8 8 7 6 5 4 5 5 5 4 5 4 3 3 5 7 9 9 8 7 6 5 4 2 2
3 5 4 3 4 7 7 7 6 11 6 10 16 17 16 18 17 18 17 16 15 13 12 10 9 8 7 4 5 2 2 3 4 5 4 3 3 2 3 2 3 3 4 2 2 2 1 1 1
1 3 3 3 3 5 6 6 5 6 9 14 18 20 17 17 16 16 16 15 14 13 12 10 10 9 7 5 5 4 3 3 3 4 5 4 3 3 2 2 2 1 1 1 1 1 1 0 1
0 2 2 1 3 4 7 7 6 4 11 14 16 15 15 15 14 12 13 13 13 12 12 11 10 9 8 6 5 5 4 4 4 4 4 5 4 4 3 2 2 2 1 2 2 2 1 1 1
3 2 3 2 1 3 7 5 5 6 14 16 16 15 14 14 14 12 12 12 12 12 12 10 11 10 9 7 5 5 5 4 4 4 5 6 4 5 4 3 3 2 2 2 2 3 2 1 1
4 4 7 4 1 2 6 3 5 11 16 17 16 15 14 13 13 14 14 13 13 12 11 11 11 10 9 8 7 6 5 4 4 4 5 5 5 5 4 4 3 3 2 2 2 1 1 1 1
5 4 3 6 1 2 7 3 5 13 17 15 14 14 12 11 13 13 13 12 11 12 11 11 11 10 8 7 6 5 4 5 4 4 4 5 6 6 5 4 3 3 2 2 2 1 1 1 1
5 2 4 6 3 3 5 5 6 11 15 14 13 13 12 10 10 11 13 13 13 13 12 10 8 8 7 6 5 5 4 4 4 4 4 4 6 6 5 4 3 3 2 2 2 1 2 1 1
5 3 3 4 3 2 4 4 7 9 12 12 12 11 11 12 11 12 11 12 12 11 10 9 8 8 6 4 4 3 3 3 3 4 5 5 5 6 5 3 4 3 3 2 2 2 1 1 2
5 4 4 5 3 3 4 4 6 8 10 10 9 10 10 9 8 10 11 12 11 10 10 9 9 8 6 4 3 3 3 3 3 3 5 5 5 6 5 4 4 3 3 3 3 2 2 1 1
4 3 4 4 2 3 3 2 3 6 10 12 13 12 11 9 7 8 9 10 10 10 10 9 9 8 7 5 4 3 3 3 3 3 4 5 5 5 5 5 4 4 3 3 3 3 2 1 2
3 2 3 3 4 5 5 4 2 1 3 6 10 10 12 14 13 11 10 10 10 11 11 10 8 8 7 6 4 3 2 1 1 2 2 4 5 5 4 5 4 4 4 3 3 3 4 2 2
3 4 1 2 4 3 3 0 5 2 3 5 7 7 9 10 11 11 10 10 11 11 10 9 9 8 7 7 6 6 5 4 4 3 3 3 4 5 5 5 5 4 4 4 4 4 3 4 2
4 2 1 1 3 3 3 3 5 0 3 5 7 8 9 10 12 11 10 10 9 9 9 8 8 7 6 7 7 6 4 3 2 3 3 3 2 3 5 5 5 5 4 4 4 3 4 3 4
2 5 8 7 6 2 3 3 4 4 6 6 7 8 9 10 10 8 8 7 6 7 7 7 8 7 7 7 6 6 5 5 4 4 4 3 2 2 4 4 4 4 4 5 4 4 4 4 4
5 7 6 6 5 5 3 2 7 6 6 8 9 9 8 8 8 8 8 8 7 7 8 7 8 7 6 6 6 6 6 6 6 5 4 4 3 2 4 4 4 4 4 4 4 4 4 4 4
3 10 8 4 4 5 4 1 6 4 2 5 6 8 8 8 6 7 8 9 8 8 8 8 8 6 6 6 6 5 5 4 3 4 4 4 4 4 4 4 4 4 4 4 4 3 4 4 4
5 5 9 8 2 1 4 3 4 2 4 5 7 8 8 8 7 6 5 6 8 8 8 8 8 6 6 6 5 4 4 4 4 3 3 3 3 3 3 4 4 3 3 3 3 3 4 3 4
8 8 7 6 4 2 4 3 5 5 5 5 6 7 6 5 6 6 5 4 5 7 7 7 7 7 6 6 5 5 4 4 3 3 3 3 3 3 3 3 3 2 2 2 2 2 2 3 3
4 4 6 5 6 6 2 7 7 10 9 9 9 9 8 8 7 7 6 5 5 6 7 6 6 6 6 6 5 4 4 3 3 3 3 3 2 2 2 2 2 2 2 2 2 2 1 2 2
7 8 9 6 4 5 4 8 5 7 8 9 9 8 8 8 8 8 8 7 6 6 6 6 6 6 6 6 5 4 3 3 3 3 2 2 2 2 2 2 2 2 2 2 2 2 1 2 2
Wind_Direction
273 239 161 75 54 58 85 87 89 77 62 64 75 82 84 67 107 130 133 135 133 132 132 129 127 124 120 118 115 112 109 107 105 103 102 102 102 103 105 107 106 105 105 104 104 104 106 107 108
278 222 93 51 74 76 74 91 91 99 119 106 85 84 77 71 89 114 124 137 133 132 129 130 128 126 123 121 119 116 113 111 109 108 107 106 106 106 107 109 109 108 108 107 107 107 107 108 109
229 168 77 62 89 117 109 101 105 105 109 101 95 75 78 109 119 126 138 140 131 127 127 134 131 128 126 125 122 119 117 115 114 112 111 110 109 108 109 110 110 110 110 110 109 109 108 107 106
119 63 48 68 104 135 127 129 120 109 86 78 92 76 77 119 124 133 139 138 129 128 129 136 133 131 129 128 126 123 121 119 117 115 114 113 111 110 111 112 112 112 112 112 111 111 108 105 102
83 73 54 53 100 119 127 133 125 111 98 94 95 95 77 90 123 134 140 138 133 132 134 136 135 135 134 133 131 128 126 123 121 119 117 116 114 112 113 113 113 114 114 114 114 112 108 104 100
59 66 63 60 88 108 123 125 111 105 113 111 108 106 100 128 134 141 141 139 138 139 138 139 140 139 137 135 133 130 129 127 125 123 121 120 118 117 117 117 117 116 115 115 114 112 109 103 97
102 92 126 163 128 115 128 126 121 129 133 136 130 107 121 142 144 142 139 136 138 140 140 139 142 141 142 140 137 135 134 131 130 128 126 125 123 123 123 121 121 120 120 119 117 115 109 101 95
128 101 93 164 140 142 139 125 137 136 131 134 134 132 154 160 144 137 134 134 136 141 144 143 140 138 138 140 142 141 139 137 136 134 132 131 128 128 127 125 127 127 126 124 120 116 110 101 93
99 82 155 191 154 152 136 119 120 106 123 149 140 139 151 144 138 135 134 136 143 149 155 154 150 146 143 146 149 146 145 144 141 139 138 130 116 118 126 135 135 133 132 130 127 121 112 103 88
108 132 207 202 166 151 143 135 134 109 111 100 100 118 136 140 144 146 150 154 158 162 168 166 160 157 157 159 141 142 142 139 134 136 134 128 131 140 138 145 143 141 139 138 135 131 120 97 62
146 175 201 221 168 144 136 142 127 126 144 156 149 151 151 149 153 155 159 162 164 166 168 169 166 163 165 150 149 148 139 143 147 151 149 143 136 136 126 131 139 142 146 131 132 124 103 135 124
189 246 199 202 156 135 142 137 125 149 172 165 157 156 157 157 160 161 162 165 164 165 169 167 166 163 164 153 160 162 158 162 165 167 159 148 143 146 149 153 154 154 140 153 142 141 169 227 158
199 286 295 202 173 152 130 133 139 146 143 147 149 153 158 160 161 162 162 162 161 166 167 167 167 164 161 158 170 168 171 172 170 165 168 160 157 162 163 166 170 177 168 169 170 171 176 177 166
290 321 318 300 200 138 124 133 129 154 142 148 154 159 162 163 160 158 160 162 163 165 165 165 165 165 162 166 171 169 176 173 166 169 175 167 163 165 166 170 179 190 189 179 175 175 172 168 157
339 3 333 302 245 157 105 74 156 155 147 153 162 164 164 167 164 166 168 165 164 161 159 161 165 163 165 168 170 167 174 167 167 177 179 173 169 166 164 168 179 195 193 177 163 164 137 149 140
359 19 315 288 239 179 112 164 186 153 152 158 165 168 167 170 172 170 166 161 158 155 156 164 167 162 164 166 160 160 166 166 173 176 179 177 171 164 160 168 182 188 170 158 155 150 131 114 132
358 313 270 289 252 166 125 172 180 164 157 162 166 168 167 166 169 169 165 160 159 158 159 163 160 161 163 161 153 152 157 166 171 170 178 179 170 163 162 172 181 171 157 165 179 155 151 157 192
274 290 289 268 263 128 125 160 168 166 160 162 165 166 165 168 175 167 161 158 157 157 158 159 159 162 157 150 135 130 143 161 170 176 179 176 173 167 161 167 172 164 153 166 166 158 164 175 188
250 287 288 268 250 116 131 145 167 168 162 159 159 163 162 169 173 160 158 157 155 156 157 161 160 165 157 152 149 148 162 171 177 185 181 177 173 169 164 164 168 167 168 181 175 156 166 191 141
271 301 306 300 315 96 114 146 174 171 171 168 164 165 162 155 155 160 159 161 162 164 164 165 165 165 166 163 159 159 160 174 185 188 183 180 175 175 172 165 169 172 171 181 178 155 158 204 160
296 286 293 296 353 33 76 5 310 263 144 162 166 166 164 165 165 169 169 169 166 170 171 172 170 169 171 164 149 133 116 104 135 183 188 194 184 181 174 172 174 182 176 185 190 175 171 192 219
284 280 326 23 53 329 79 243 283 218 157 173 173 166 164 164 162 171 173 172 175 178 172 167 170 171 172 166 166 164 168 180 197 189 191 198 189 183 179 173 179 188 185 189 199 188 182 174 203
235 269 10 43 83 15 12 116 282 105 164 193 183 173 167 164 166 172 174 175 174 170 168 166 165 170 172 173 177 173 176 185 177 169 182 198 202 194 187 183 185 191 193 198 202 193 190 184 193
208 38 25 39 61 10 277 137 269 229 201 186 182 175 165 160 160 161 162 157 160 161 162 162 163 170 174 176 177 177 179 175 166 176 184 196 204 205 203 194 195 198 199 202 204 202 201 202 202
79 78 28 2 12 263 280 138 246 249 203 169 170 172 162 152 151 152 156 159 163 163 165 165 167 172 174 173 176 181 182 179 178 181 186 187 194 204 212 201 202 204 204 204 199 201 211 205 204
157 133 152 189 220 282 338 231 258 251 179 145 146 149 139 138 144 155 165 167 167 168 168 169 172 172 173 175 180 179 179 180 182 182 182 191 197 204 204 197 201 206 204 211 206 209 219 212 214
153 173 168 139 168 315 295 291 322 33 98 116 127 127 138 149 150 154 163 168 166 168 171 173 171 169 176 178 173 173 174 177 182 185 187 193 198 198 194 193 199 204 203 206 201 213 225 219 218
162 155 99 113 144 232 286 254 220 202 175 145 137 138 150 149 149 143 149 164 165 164 164 166 169 174 173 173 172 174 177 182 179 173 184 188 188 182 172 184 191 200 202 195 190 207 216 207 222
171 140 120 129 151 151 221 266 230 191 172 156 159 159 163 164 165 157 156 167 163 155 154 159 166 162 166 170 167 166 175 176 170 173 187 186 175 170 169 179 185 189 189 183 181 205 205 213 235
173 174 147 152 211 160 167 265 279 172 164 154 156 164 166 164 163 158 155 156 153 154 157 161 167 162 162 161 158 163 166 163 161 169 179 173 164 160 160 151 152 163 164 166 171 203 217 215 231